| time (UTC) | temp F | wind direction | speed knots | gust knots | rain 1hr in | rain 24hr in | rain mn in | humidity % | barometer mb |
| 20260502185523 | 64 | 256 | 3.5 | 7.0 | 0.00 | 0.01 | 0.01 | 27 | |
| 20260502184529 | 65 | 237 | 3.5 | 6.1 | 0.00 | 0.01 | 0.01 | 27 | |
| 20260502183535 | 64 | 151 | 0.9 | 2.6 | 0.00 | 0.01 | 0.01 | 29 | |
| 20260502182524 | 63 | 188 | 4.3 | 6.1 | 0.00 | 0.01 | 0.01 | 29 | |
| 20260502181549 | 63 | 269 | 3.5 | 6.1 | 0.00 | 0.01 | 0.01 | 29 | |
| 20260502180534 | 62 | 227 | 2.6 | 5.2 | 0.00 | 0.01 | 0.01 | 29 | |
| 20260502163534 | 61 | 283 | 2.6 | 5.2 | 0.00 | 0.01 | 0.01 | 32 | |
| 20260502162623 | 60 | 10 | 2.6 | 3.5 | 0.00 | 0.01 | 0.01 | 33 | |
| 20260502161528 | 60 | 66 | 2.6 | 6.1 | 0.00 | 0.01 | 0.01 | 32 | |
| 20260502160535 | 60 | 33 | 2.6 | 4.3 | 0.00 | 0.01 | 0.01 | 33 | |
| 20260502151529 | 57 | 253 | 2.6 | 5.2 | 0.00 | 0.01 | 0.01 | 36 | |
| 20260502150533 | 56 | 323 | 1.7 | 4.3 | 0.00 | 0.01 | 0.01 | 37 | |
| 20260502130533 | 37 | 217 | 0.0 | 1.7 | 0.00 | 0.01 | 0.01 | 81 | |
| 20260502123533 | 35 | 264 | 0.9 | 1.7 | 0.00 | 0.01 | 0.01 | 85 | |
| 20260502122521 | 34 | 0.0 | 0.0 | 0.00 | 0.01 | 0.01 | 87 | ||
| 20260502121527 | 33 | 0.0 | 0.0 | 0.00 | 0.01 | 0.01 | 89 | ||
| 20260502120533 | 32 | 270 | 0.0 | 1.7 | 0.00 | 0.01 | 0.01 | 93 | |
| 20260502115542 | 31 | 0.0 | 0.0 | 0.00 | 0.01 | 0.01 | 95 | ||
| 20260502114547 | 31 | 0.0 | 0.0 | 0.00 | 0.01 | 0.01 | 95 | ||
| 20260502113533 | 30 | 0.0 | 0.0 | 0.00 | 0.01 | 0.01 | 95 | ||
| 20260502112521 | 30 | 0.0 | 0.0 | 0.00 | 0.01 | 0.01 | 94 | ||
| 20260502111527 | 30 | 0.0 | 0.0 | 0.00 | 0.01 | 0.01 | 92 | ||
| 20260502110533 | 30 | 0.0 | 0.0 | 0.00 | 0.01 | 0.01 | 92 | ||
| 20260502105542 | 30 | 0.0 | 0.0 | 0.00 | 0.01 | 0.01 | 92 | ||
| 20260502104527 | 30 | 0.0 | 0.0 | 0.00 | 0.01 | 0.01 | 92 | ||
| 20260502103534 | 30 | 0.0 | 0.0 | 0.00 | 0.01 | 0.01 | 92 | ||
| 20260502102521 | 31 | 0.0 | 0.0 | 0.00 | 0.01 | 0.01 | 90 | ||
| 20260502101527 | 31 | 0.0 | 0.0 | 0.00 | 0.01 | 0.01 | 90 | ||
| 20260502100533 | 31 | 0.0 | 0.0 | 0.00 | 0.01 | 0.01 | 90 | ||
| 20260502090553 | 33 | 0.0 | 0.0 | 0.00 | 0.01 | 0.01 | 88 | ||
| 20260502071527 | 36 | 0.0 | 0.0 | 0.00 | 0.01 | 0.01 | 82 | ||
| 20260502070533 | 36 | 0.0 | 0.0 | 0.00 | 0.01 | 0.01 | 81 | ||
| 20260502065521 | 36 | 0.0 | 0.0 | 0.00 | 0.01 | 0.01 | 80 | ||
| 20260502064527 | 37 | 0.0 | 0.0 | 0.00 | 0.01 | 0.01 | 79 | ||
| 20260502063533 | 37 | 0.0 | 0.0 | 0.00 | 0.01 | 0.01 | 79 | ||
| 20260502062520 | 37 | 0.0 | 0.0 | 0.00 | 0.01 | 0.01 | 79 | ||
| 20260502061527 | 38 | 0.0 | 0.0 | 0.00 | 0.01 | 0.01 | 79 | ||
| 20260502060532 | 38 | 0.0 | 0.0 | 0.00 | 0.01 | 0.01 | 80 | ||
| 20260502055541 | 38 | 0.0 | 0.0 | 0.00 | 0.01 | 0.01 | 80 | ||
| 20260502054527 | 38 | 0.0 | 0.0 | 0.00 | 0.01 | 0.01 | 80 | ||
| 20260502053533 | 38 | 0.0 | 0.0 | 0.00 | 0.01 | 0.01 | 80 | ||
| 20260502052521 | 39 | 0.0 | 0.0 | 0.00 | 0.01 | 0.01 | 78 | ||
| 20260502051527 | 39 | 0.0 | 0.0 | 0.00 | 0.01 | 0.01 | 77 | ||
| 20260502050535 | 40 | 0.0 | 0.0 | 0.00 | 0.01 | 0.01 | 76 | ||
| 20260502045521 | 40 | 0.0 | 0.0 | 0.00 | 0.01 | 0.01 | 76 | ||
| 20260502044529 | 40 | 0.0 | 0.0 | 0.00 | 0.01 | 0.01 | 71 | ||
| 20260502043533 | 40 | 0.0 | 0.0 | 0.00 | 0.01 | 0.01 | 72 | ||
| 20260502042543 | 41 | 0.0 | 0.0 | 0.00 | 0.01 | 0.01 | 69 | ||
| 20260502041527 | 42 | 0.0 | 0.0 | 0.00 | 0.01 | 0.01 | 66 | ||
| 20260502040533 | 42 | 0.0 | 0.0 | 0.00 | 0.01 | 0.01 | 66 | ||
| 20260502035520 | 43 | 0.0 | 0.0 | 0.00 | 0.01 | 0.01 | 65 | ||
| 20260502034526 | 43 | 0.0 | 0.0 | 0.00 | 0.01 | 0.01 | 63 | ||
| 20260502033553 | 43 | 0.0 | 0.0 | 0.00 | 0.01 | 0.01 | 62 | ||
| 20260502032521 | 44 | 0.0 | 0.0 | 0.00 | 0.01 | 0.01 | 63 | ||
| 20260502031527 | 44 | 0.0 | 0.0 | 0.00 | 0.01 | 0.01 | 62 | ||
| 20260502030533 | 44 | 0.0 | 0.0 | 0.00 | 0.01 | 0.01 | 60 | ||
| 20260502025523 | 45 | 0.0 | 0.0 | 0.00 | 0.01 | 0.01 | 58 | ||
| 20260502024607 | 45 | 0.0 | 0.0 | 0.00 | 0.01 | 0.01 | 58 | ||
| 20260502023533 | 45 | 0.0 | 0.0 | 0.00 | 0.01 | 0.01 | 58 | ||
| 20260502022521 | 46 | 0.0 | 0.0 | 0.00 | 0.01 | 0.01 | 56 | ||
| 20260502021529 | 46 | 0.0 | 0.0 | 0.00 | 0.01 | 0.01 | 55 | ||
| 20260502020532 | 46 | 0.0 | 0.0 | 0.00 | 0.01 | 0.01 | 55 | ||
| 20260502015541 | 47 | 0.0 | 0.0 | 0.00 | 0.01 | 0.01 | 54 | ||
| 20260502014527 | 47 | 0.0 | 0.0 | 0.00 | 0.01 | 0.01 | 53 | ||
| 20260502013535 | 48 | 0.0 | 0.0 | 0.00 | 0.01 | 0.01 | 51 | ||
| 20260502012541 | 49 | 0.0 | 0.0 | 0.00 | 0.01 | 0.01 | 49 | ||
| 20260502011527 | 50 | 19 | 0.9 | 1.7 | 0.00 | 0.01 | 0.01 | 48 | |
| 20260502010533 | 51 | 0.0 | 0.0 | 0.01 | 0.01 | 0.01 | 45 | ||
| 20260502005521 | 52 | 0.0 | 0.0 | 0.01 | 0.01 | 0.01 | 44 | ||
| 20260502004547 | 53 | 359 | 0.9 | 2.6 | 0.01 | 0.01 | 0.01 | 41 | |
| 20260502003533 | 55 | 2 | 2.6 | 3.5 | 0.01 | 0.01 | 0.01 | 39 | |
| 20260502002521 | 57 | 15 | 2.6 | 4.3 | 0.01 | 0.01 | 0.01 | 38 | |
| 20260502001526 | 58 | 29 | 2.6 | 3.5 | 0.01 | 0.01 | 0.01 | 37 | |
| 20260502000552 | 59 | 5 | 1.7 | 2.6 | 0.00 | 0.00 | 0.00 | 36 | |
| 20260501235521 | 60 | 21 | 1.7 | 3.5 | 0.00 | 0.00 | 0.00 | 37 | |
| 20260501234527 | 59 | 8 | 0.9 | 3.5 | 0.00 | 0.00 | 0.00 | 38 | |
| 20260501233532 | 58 | 24 | 2.6 | 3.5 | 0.00 | 0.00 | 0.00 | 38 | |
| 20260501232540 | 57 | 2 | 1.7 | 2.6 | 0.00 | 0.00 | 0.00 | 39 | |
| 20260501231526 | 57 | 343 | 2.6 | 3.5 | 0.00 | 0.00 | 0.00 | 39 | |
| 20260501230532 | 57 | 2 | 2.6 | 5.2 | 0.00 | 0.00 | 0.00 | 39 | |
| 20260501225520 | 58 | 336 | 1.7 | 4.3 | 0.00 | 0.00 | 0.00 | 38 | |
| 20260501224526 | 59 | 37 | 2.6 | 4.3 | 0.00 | 0.00 | 0.00 | 37 | |
| 20260501223532 | 60 | 54 | 2.6 | 5.2 | 0.00 | 0.00 | 0.00 | 37 | |
| 20260501222520 | 60 | 24 | 2.6 | 5.2 | 0.00 | 0.00 | 0.00 | 39 | |
| 20260501221526 | 57 | 24 | 3.5 | 4.3 | 0.00 | 0.00 | 0.00 | 39 | |
| 20260501220532 | 59 | 336 | 2.6 | 5.2 | 0.00 | 0.00 | 0.00 | 39 | |
| 20260501215540 | 59 | 346 | 2.6 | 5.2 | 0.00 | 0.00 | 0.00 | 39 | |
| 20260501214546 | 56 | 319 | 2.6 | 4.3 | 0.00 | 0.00 | 0.00 | 41 | |
| 20260501213553 | 57 | 20 | 2.6 | 5.2 | 0.00 | 0.00 | 0.00 | 40 | |
| 20260501212520 | 57 | 355 | 3.5 | 6.1 | 0.00 | 0.00 | 0.00 | 39 | |
| 20260501211526 | 57 | 340 | 2.6 | 4.3 | 0.00 | 0.00 | 0.00 | 40 | |
| 20260501210531 | 57 | 29 | 2.6 | 3.5 | 0.00 | 0.00 | 0.00 | 40 | |
| 20260501205521 | 58 | 14 | 2.6 | 4.3 | 0.00 | 0.00 | 0.00 | 39 | |
| 20260501204526 | 58 | 24 | 2.6 | 5.2 | 0.00 | 0.00 | 0.00 | 37 | |
| 20260501203532 | 62 | 19 | 2.6 | 4.3 | 0.00 | 0.00 | 0.00 | 34 | |
| 20260501202520 | 58 | 302 | 2.6 | 4.3 | 0.00 | 0.00 | 0.00 | 38 | |
| 20260501201526 | 57 | 353 | 3.5 | 6.1 | 0.00 | 0.00 | 0.00 | 38 | |
| 20260501200552 | 57 | 359 | 2.6 | 3.5 | 0.00 | 0.00 | 0.00 | 41 | |
| 20260501195519 | 58 | 354 | 2.6 | 4.3 | 0.00 | 0.00 | 0.00 | 38 | |
| 20260501194545 | 59 | 50 | 2.6 | 4.3 | 0.00 | 0.00 | 0.00 | 38 | |
| 20260501193531 | 60 | 340 | 2.6 | 7.0 | 0.00 | 0.00 | 0.00 | 38 | |
| 20260501192520 | 57 | 353 | 3.5 | 6.1 | 0.00 | 0.00 | 0.00 | 39 | |
| 20260501191526 | 60 | 18 | 2.6 | 4.3 | 0.00 | 0.00 | 0.00 | 36 | |
| 20260501190531 | 60 | 5 | 2.6 | 3.5 | 0.00 | 0.00 | 0.00 | 38 |